This is the latest recevied weather packets stored in our database for station/object SP2FH-13. If no packets are shown the sender has not sent any weather packets the latest 10 day(s).
| Time | Temp. | Humidity | Pressure | Rain* | Wind** | Luminosity | Snow |
|---|---|---|---|---|---|---|---|
| 1777438285 | 0.56° C | 80% | 1017.3 hPa | - | - | 57 W/m² | - |
| 1777437984 | 0° C | 81% | 1017.3 hPa | - | - | 66 W/m² | - |
| 1777437683 | -0.56° C | 83% | 1017.3 hPa | - | - | 75 W/m² | - |
| 1777437080 | -0.56° C | 85% | 1017.1 hPa | - | - | 48 W/m² | - |
| 1777436779 | -1.11° C | 87% | 1017.1 hPa | - | - | 36 W/m² | - |
| 1777436478 | -1.67° C | 89% | 1017 hPa | - | - | 47 W/m² | - |
| 1777436177 | -1.67° C | 90% | 1017 hPa | - | - | 42 W/m² | - |
| 1777435876 | -1.67° C | 90% | 1016.9 hPa | - | - | 22 W/m² | - |
| 1777435575 | -1.67° C | 90% | 1016.8 hPa | - | - | 19 W/m² | - |
| 1777434370 | -2.22° C | 91% | 1016.8 hPa | - | - | 12 W/m² | - |
| 1777431058 | -2.22° C | 88% | 1016.5 hPa | - | - | - | - |
| 1777429551 | -2.22° C | 86% | 1016.5 hPa | - | - | - | - |
| 1777426541 | -1.67° C | 77% | 1016.3 hPa | - | - | - | - |
| 1777423830 | -0.56° C | 72% | 1016.4 hPa | - | - | - | - |
| 1777421721 | -1.11° C | 65% | 1016.4 hPa | - | - | - | - |
| 1777418407 | -0.56° C | 61% | 1016.3 hPa | - | - | - | - |
| 1777415396 | 0° C | 57% | 1016 hPa | - | - | - | - |
| 1777414191 | 0.56° C | 54% | 1015.9 hPa | - | - | - | - |
| 1777413585 | 1.67° C | 50% | 1015.8 hPa | - | - | - | - |
| 1777411777 | 2.78° C | 46% | 1015.6 hPa | - | - | - | - |
| 1777411175 | 2.78° C | 44% | 1015.5 hPa | - | - | - | - |
| 1777410875 | 3.33° C | 44% | 1015.5 hPa | - | - | - | - |
| 1777410574 | 3.33° C | 44% | 1015.5 hPa | - | - | - | - |
| 1777410273 | 3.33° C | 44% | 1015.5 hPa | - | - | - | - |
| 1777409972 | 3.33° C | 44% | 1015.5 hPa | - | - | - | - |
* Rain since midnight (hover to see other rain measurements)
** Current wind speed in m/s (hover to see current wind gust speed)